Flag for Canada

Past Weather in 47°30'58"N, 67°23'35"W, Canada — Yesterday and Last 2 Weeks

Now
38 °F

Chilly.


Feels Like: 32 °F
Forecast: 53 / 32 °F
Wind: 9 mph from North

Location: Riviere Du Loup
Current Time: Sep 19, 2020 at 11:14:50 pm
Latest Report: Sep 19, 2020 at 10:00 pm
Visibility: N/A
Pressure30.38 "Hg
Humidity: 72%
Dew Point: 30 °F
Location of 47°30'58"N, 67°23'35"WLocation

Past Weather in 47°30'58"N, 67°23'35"W — Graph

°F

47°30'58"N, 67°23'35"W Temperature Yesterday

Maximum temperature yesterday: 52 °F (at 4:00 pm)
Minimum temperature yesterday: 30 °F (at 6:00 am)
Average temperature yesterday: 41 °F

High & Low Weather Summary for the Past Weeks

 TemperatureHumidityPressure
High74 °F (Sep 7, 2:00 pm)100% (Sep 7, 7:00 am)30.44 "Hg (Sep 7, 7:00 am)
Low30 °F (Sep 18, 6:00 am)35% (Sep 17, 5:00 pm)29.64 "Hg (Sep 14, 1:00 am)
Average52 °F77%30.11 "Hg
* Reported Sep 4 10:00 pm — Sep 19 10:00 pm, 47°30'58"N, 67°23'35"W. Weather by CustomWeather, © 2020

Note: Actual official high and low records may vary slightly from our data, if they occured in-between our weather recording intervals... More about our weather records

47°30'58"N, 67°23'35"W Weather History for the Previous 24 Hours

Scroll right to see more
 ConditionsComfort  
Time TempWeatherWind HumidityBarometerVisibility
10:00 pm
Sat, Sep 19
38 °FChilly.9 mph72%30.38 "HgN/A
9:00 pm42 °FQuite cool.35 mph61%30.37 "HgN/A
8:00 pm43 °FQuite cool.35 mph70%30.34 "HgN/A
7:00 pm44 °FQuite cool.29 mph73%30.33 "HgN/A
6:00 pm50 °FCool.29 mph48%30.30 "HgN/A
5:00 pm47 °FCool.28 mph64%30.30 "HgN/A
4:00 pm50 °FCool.28 mph62%30.29 "HgN/A
3:00 pm49 °FCool.30 mph61%30.29 "HgN/A
2:00 pm49 °FCool.29 mph60%30.29 "HgN/A
1:00 pm48 °FCool.39 mph64%30.29 "HgN/A
12:00 pm46 °FCool.1 mph66%30.29 "HgN/A
11:00 am45 °FCool.40 mph69%30.29 "HgN/A
10:00 am43 °FQuite cool.41 mph75%30.28 "HgN/A
9:00 am40 °FQuite cool.10 mph85%30.27 "HgN/A
8:00 am34 °FChilly.16 mph92%30.25 "HgN/A
7:00 am31 °FChilly.15 mph98%30.24 "HgN/A
6:00 am35 °FChilly.8 mph86%30.23 "HgN/A
5:00 am37 °FChilly.38 mph86%30.22 "HgN/A
4:00 am40 °FQuite cool.40 mph76%30.20 "HgN/A
3:00 am40 °FQuite cool.39 mph78%30.19 "HgN/A
2:00 am39 °FChilly.20 mph80%30.19 "HgN/A
1:00 am42 °FQuite cool.39 mph66%30.17 "HgN/A
12:00 am44 °FQuite cool.39 mph65%30.16 "HgN/A
11:00 pm
Fri, Sep 18
45 °FQuite cool.38 mph64%30.16 "HgN/A
Weather by CustomWeather, © 2020

See weather overview